Volver al catálogo

STARLINK-31874

ActivoComunicacionesVLEO
NORAD 60603·PAYLOAD·🇺🇸 United States

Lanzado Aug 20, 2024 desde Cape Canaveral Space Force Station

Loading…

Próximos Pases (próximas 24 horas)

TLE

ActualizadoSource: CelesTrak SupGP

Época: Sep 14, 2026, 21:24 UTC

1 60603C 24150W   26257.89215278 -.00042435  00000+0 -12538-2 0  2578
2 60603  53.1574 144.0906 0001326  82.4608  42.1438 15.34411756    16

Sigue STARLINK-31874 en tiempo real con AllMySat

Download on the App Store